Tracking 19576 objects as of 16-Feb-2019
HD Live streaming from Space Station
objects crossing your sky now

COSMOS 623

Track COSMOS 623 now!
10-day predictions
COSMOS 623 is classified as:


NORAD ID: 6991
Int'l Code: 1973-104G
Perigee: 1,393.5 km
Apogee: 1,492.2 km
Inclination: 74.0 °
Period: 114.6 minutes
Semi major axis: 7813 km
RCS: 0.6745 m2 (medium)
Launch date: December 19, 1973
Source: Commonwealth of Independent States (former USSR) (CIS)
Launch site: PLESETSK MISSILE AND SPACE COMPLEX (PKMTR)
aabbcc
Your satellite tracking list
Your tracking list is empty




NASA's NSSDC Master Catalog

Two Line Element Set (TLE):
1  6991U 73104G   19046.80635751 -.00000019 +00000-0 -18383-4 0  9994
2  6991 074.0319 002.5056 0063192 198.6698 181.9054 12.56910443072133
Source of the keplerian elements: AFSPC